[[{"header":{"parameterUnit":"m.s-1","parameterCategory":2,"la1":30.2991,"la2":30.254,"lo1":-89.0895,"lo2":-89.0444,"dy":0.0017,"dx":0.0017,"nx":28,"ny":28,"refTime":"2025-12-03T03:00:00:Z","depth":"0","parameterNumber":2,"parameterNumberName":"U-component_of_CURRENTS"},"data":[0,0,0,0,0,0,0,0,0,0,0,0,0,0,0,0,0,0,0,0,0,0,0,0,0,0,0,0,0,0,0,0,0,0,0,0,0,0,0,0,0,0,0,0,0,0,0,0,0,0,0,0,0,0,0,0,0,0,-0.2228,-0.2228,0,-0.2238,-0.2238,-0.2238,-0.2206,-0.2206,-0.2205,-0.2204,-0.2166,-0.2166,-0.2165,0,0,0,0,0,0,0,0,0,0,0,0,0,-0.2185,-0.2185,-0.2228,-0.2228,-0.2228,-0.2238,-0.2238,-0.2238,-0.2207,-0.2206,-0.2205,-0.2204,-0.2166,-0.2166,-0.2165,0,0,0,0,0,0,0,0,0,0,0,0,0,-0.2198,-0.2186,-0.2228,-0.2215,-0.2214,-0.2238,-0.2238,-0.2238,-0.2207,-0.2206,-0.2204,-0.2203,-0.2166,-0.2166,-0.2165,-0.2186,0,0,-0.2164,-0.2164,0,0,0,0,0,0,0,0,-0.2197,-0.2199,-0.2217,-0.2216,-0.2215,-0.2221,-0.2209,-0.2219,-0.2207,-0.2208,-0.2204,-0.2203,-0.2182,-0.218,-0.2183,-0.2184,-0.2183,-0.2164,-0.2164,-0.2163,-0.2163,0,0,0,0,0,0,0,-0.2196,-0.2199,-0.223,-0.2217,-0.2216,-0.2211,-0.2211,-0.2211,-0.2199,-0.2208,-0.2206,-0.221,-0.2181,-0.2183,-0.2182,-0.2182,-0.2164,-0.2164,-0.2163,-0.2163,-0.219,-0.2191,0,0,0,0,0,0,-0.22,-0.2198,-0.223,-0.223,-0.2205,-0.2212,-0.2213,-0.2219,-0.22,-0.2197,-0.2211,-0.2209,-0.2185,-0.2182,-0.218,-0.219,-0.2163,-0.2163,-0.2163,-0.2189,-0.219,-0.2191,0,0,0,0,0,0,-0.22,-0.2203,-0.2229,-0.2216,-0.2219,-0.2215,-0.2222,-0.222,-0.2217,-0.2204,-0.2199,-0.221,-0.2184,-0.2181,-0.2182,-0.2189,-0.2163,-0.2162,-0.2188,-0.2189,-0.2191,-0.2219,0,0,0,0,0,0,-0.2198,-0.2203,-0.2205,-0.2216,-0.222,-0.2243,-0.2223,-0.2221,-0.2223,-0.222,-0.2202,-0.2197,-0.2182,-0.2183,-0.2182,-0.2188,-0.2162,-0.2186,-0.2188,-0.219,-0.2216,-0.2221,-0.2225,0,0,0,0,0,-0.2197,-0.2207,-0.2205,-0.2208,-0.2224,-0.2244,-0.2246,-0.2237,-0.2224,-0.2229,-0.2218,-0.2197,-0.2194,-0.2184,-0.2182,-0.2188,-0.2186,-0.2188,-0.219,-0.2215,-0.222,-0.2224,0,0,0,0,0,0,-0.219,-0.2206,-0.2203,-0.2217,-0.223,-0.224,-0.2242,-0.2241,-0.2237,-0.2229,-0.2211,-0.2207,-0.2211,-0.2202,-0.2191,-0.2203,-0.2186,-0.2188,-0.2205,-0.221,-0.2214,-0.2211,-0.2162,0,0,0,0,0,-0.2192,-0.2198,-0.2217,-0.2226,-0.2234,-0.2239,-0.2244,-0.2243,-0.2245,-0.2241,-0.2231,-0.2222,-0.2222,-0.2217,-0.2215,-0.2223,-0.2199,-0.2226,-0.223,-0.2233,-0.2231,-0.2211,-0.2213,-0.2198,-0.2198,-0.2198,0,0,-0.219,-0.22,-0.2202,-0.2224,-0.223,-0.2249,-0.2238,-0.2251,-0.2261,-0.2239,-0.2243,-0.2237,-0.2229,-0.2235,-0.2236,-0.2225,-0.2225,-0.2236,-0.2239,-0.2235,-0.2214,-0.2215,-0.2216,-0.22,-0.2199,-0.2199,0,0,-0.2195,-0.2201,-0.2211,-0.2226,-0.2244,-0.2253,-0.2258,-0.2272,-0.2271,-0.2283,-0.2269,-0.2267,-0.2267,-0.2261,-0.2258,-0.2286,-0.225,-0.2287,-0.2301,-0.2282,-0.2282,-0.2282,-0.2249,-0.2246,-0.2286,-0.2286,-0.2286,0,-0.2191,-0.2206,-0.2217,-0.2236,-0.2247,-0.2256,-0.2274,-0.2284,-0.2295,-0.2294,-0.2286,-0.2285,-0.2278,-0.2283,-0.2294,-0.2293,-0.2271,-0.228,-0.2285,-0.2285,-0.2284,-0.225,-0.2246,-0.2288,-0.2288,-0.2288,-0.2287,0,-0.2205,-0.2219,-0.2229,-0.2253,-0.227,-0.2286,-0.2308,-0.2318,-0.2317,-0.2322,-0.2325,-0.2319,-0.2313,-0.2317,-0.2314,-0.2314,-0.2296,-0.2293,-0.2268,-0.2287,-0.225,-0.2246,-0.229,-0.229,-0.2289,-0.2289,0,0,-0.2187,-0.2229,-0.2231,-0.2241,-0.2278,-0.2291,-0.2318,-0.2337,-0.2342,-0.235,-0.235,-0.2357,-0.2346,-0.2344,-0.2337,-0.2326,-0.2308,-0.2311,-0.231,-0.227,-0.2252,-0.2156,-0.2142,-0.2303,-0.2303,-0.2303,-0.2224,0,-0.219,-0.222,-0.2245,-0.227,-0.2286,-0.231,-0.2333,-0.2352,-0.236,-0.2365,-0.2362,-0.2361,-0.2359,-0.2353,-0.2345,-0.2321,-0.2299,-0.2328,-0.2246,-0.2244,-0.2149,-0.2134,-0.2056,-0.1973,-0.222,-0.2219,-0.2218,0,-0.2187,-0.2209,-0.2234,-0.2271,-0.228,-0.2299,-0.2322,-0.2345,-0.2365,-0.237,-0.2371,-0.2368,-0.2362,-0.2354,-0.2312,-0.233,-0.2292,-0.2269,-0.2265,-0.2161,-0.2139,-0.1996,-0.1955,-0.194,-0.2211,-0.2212,-0.2212,0,-0.2148,-0.2195,-0.2209,-0.2224,-0.2274,-0.2284,-0.2307,-0.2336,-0.2349,-0.2366,-0.2367,-0.2364,-0.235,-0.232,-0.2272,-0.2292,-0.2207,-0.2228,-0.2101,-0.2094,-0.2003,-0.1987,-0.1928,-0.2183,-0.2183,-0.2183,-0.2184,0,-0.2131,-0.214,-0.219,-0.2197,-0.221,-0.2257,-0.2269,-0.2294,-0.2326,-0.2329,-0.2359,-0.2346,-0.234,-0.2295,-0.226,-0.2149,-0.219,-0.2089,-0.2063,-0.2009,-0.1996,-0.1958,-0.1983,-0.2181,-0.2181,-0.2182,-0.2182,0,-0.2075,-0.2113,-0.2127,-0.2177,-0.2188,-0.2193,-0.2241,-0.225,-0.2293,-0.2296,-0.23,-0.2319,-0.2256,-0.2221,-0.2157,-0.211,-0.1985,-0.198,-0.1906,-0.1872,-0.1743,-0.1773,-0.1673,-0.1627,-0.1836,-0.1833,-0.183,0,-0.2043,-0.2044,-0.2089,-0.2093,-0.2111,-0.2134,-0.2147,-0.2212,-0.2226,-0.2265,-0.2255,-0.2218,-0.2152,-0.202,-0.1937,-0.1827,-0.185,-0.1701,-0.1727,-0.1705,-0.172,-0.175,-0.1723,-0.1621,-0.1617,-0.1614,-0.1611,0,-0.197,-0.1987,-0.1998,-0.201,-0.2023,-0.2041,-0.207,-0.208,-0.2148,-0.2148,-0.2121,-0.2071,-0.1959,-0.1807,-0.1677,-0.1616,-0.1659,-0.1629,-0.1632,-0.1557,-0.1561,-0.1514,-0.1706,-0.1582,-0.1585,-0.1588,-0.1589,-0.159,-0.1898,-0.1887,-0.1902,-0.19,-0.1921,-0.1922,-0.1894,-0.1937,-0.193,-0.1904,-0.1944,-0.1833,-0.1733,-0.153,-0.146,-0.1339,-0.1416,-0.1319,-0.1358,-0.1393,-0.1338,-0.1449,-0.128,-0.1281,-0.1282,-0.1283,-0.1284,0,-0.1791,-0.1789,-0.1789,-0.1783,-0.1756,-0.1806,-0.1813,-0.1761,-0.1705,-0.1712,-0.1655,-0.1531,-0.1376,-0.1305,-0.1179,-0.1107,-0.1106,-0.1093,-0.1147,-0.1134,-0.1242,-0.1221,-0.1,-0.1,-0.1,-0.1,-0.1,-0.1,-0.1736,-0.1693,-0.1694,-0.1609,-0.1601,-0.1518,-0.1491,-0.1437,-0.141,-0.13,-0.1244,-0.1231,-0.1187,-0.1192,-0.1077,-0.1018,-0.1018,-0.097,-0.1005,-0.1123,-0.1149,-0.1174,-0.116,-0.0929,-0.0929,-0.086,-0.086,-0.086]},{"header":{"parameterUnit":"m.s-1","parameterCategory":2,"la1":30.2991,"la2":30.254,"lo1":-89.0895,"lo2":-89.0444,"dy":0.0017,"dx":0.0017,"nx":28,"ny":28,"refTime":"2025-12-03T03:00:00:Z","depth":"0","parameterNumber":3,"parameterNumberName":"V-component_of_CURRENTS"},"data":[0,0,0,0,0,0,0,0,0,0,0,0,0,0,0,0,0,0,0,0,0,0,0,0,0,0,0,0,0,0,0,0,0,0,0,0,0,0,0,0,0,0,0,0,0,0,0,0,0,0,0,0,0,0,0,0,0,0,-0.0397,-0.0396,0,-0.0329,-0.0328,-0.0327,-0.0275,-0.0275,-0.0275,-0.0274,-0.0175,-0.0173,-0.0171,0,0,0,0,0,0,0,0,0,0,0,0,0,-0.0444,-0.0443,-0.0397,-0.0396,-0.0396,-0.0329,-0.0328,-0.0327,-0.0276,-0.0275,-0.0275,-0.0274,-0.0176,-0.0173,-0.0171,0,0,0,0,0,0,0,0,0,0,0,0,0,-0.0403,-0.0443,-0.0397,-0.0363,-0.0359,-0.0329,-0.0328,-0.0327,-0.0276,-0.0275,-0.0275,-0.0274,-0.0177,-0.0174,-0.017,-0.0159,0,0,-0.016,-0.0158,0,0,0,0,0,0,0,0,-0.0405,-0.0401,-0.0369,-0.0365,-0.0361,-0.0311,-0.0308,-0.027,-0.0276,-0.0306,-0.0274,-0.0274,-0.0219,-0.0212,-0.0199,-0.0155,-0.015,-0.0159,-0.0157,-0.0156,-0.0155,0,0,0,0,0,0,0,-0.0408,-0.0404,-0.0369,-0.0368,-0.0363,-0.0338,-0.0332,-0.03,-0.0265,-0.0303,-0.03,-0.0295,-0.0217,-0.0203,-0.0196,-0.0149,-0.0159,-0.0156,-0.0154,-0.0153,-0.0077,-0.0077,0,0,0,0,0,0,-0.0422,-0.0407,-0.0371,-0.0367,-0.0384,-0.0338,-0.0331,-0.0327,-0.0266,-0.0256,-0.0295,-0.0292,-0.0209,-0.02,-0.0193,-0.0171,-0.0156,-0.0153,-0.0151,-0.0076,-0.0077,-0.0077,0,0,0,0,0,0,-0.0424,-0.042,-0.0374,-0.0386,-0.0379,-0.0338,-0.0334,-0.0326,-0.0311,-0.026,-0.025,-0.0289,-0.0208,-0.0198,-0.0166,-0.0167,-0.0151,-0.0148,-0.0076,-0.0076,-0.0077,-0.0131,0,0,0,0,0,0,-0.0425,-0.0421,-0.0424,-0.0387,-0.0378,-0.0362,-0.0334,-0.0325,-0.031,-0.0306,-0.0252,-0.0242,-0.0207,-0.0171,-0.0162,-0.0162,-0.0145,-0.0076,-0.0076,-0.0077,-0.0129,-0.0133,-0.0136,0,0,0,0,0,-0.0427,-0.0437,-0.0424,-0.042,-0.0384,-0.0363,-0.0356,-0.0324,-0.031,-0.0308,-0.027,-0.0243,-0.0165,-0.0169,-0.0158,-0.0157,-0.0076,-0.0076,-0.0077,-0.0128,-0.0132,-0.0136,0,0,0,0,0,0,-0.0458,-0.0431,-0.0417,-0.0418,-0.0395,-0.0355,-0.0352,-0.033,-0.0298,-0.0294,-0.0244,-0.0231,-0.0205,-0.0174,-0.0179,-0.0135,-0.0117,-0.0115,-0.0159,-0.0163,-0.0167,-0.0177,-0.0142,0,0,0,0,0,-0.0468,-0.0467,-0.0436,-0.0436,-0.0428,-0.0391,-0.0379,-0.0358,-0.0326,-0.0311,-0.0273,-0.0232,-0.0198,-0.0176,-0.0143,-0.0119,-0.0079,-0.0111,-0.0114,-0.0118,-0.0119,-0.006,-0.0058,-0.0077,-0.0077,-0.0077,0,0,-0.0479,-0.0465,-0.0464,-0.0443,-0.0422,-0.0417,-0.0382,-0.037,-0.0361,-0.0306,-0.0283,-0.0246,-0.0195,-0.0168,-0.0153,-0.0141,-0.0092,-0.0118,-0.0121,-0.012,-0.006,-0.0058,-0.0056,-0.0077,-0.0077,-0.0077,0,0,-0.0507,-0.0491,-0.0501,-0.0487,-0.0464,-0.044,-0.044,-0.0404,-0.0383,-0.0359,-0.0316,-0.0279,-0.023,-0.0189,-0.0163,-0.0166,-0.0116,-0.0158,-0.0179,-0.0122,-0.012,-0.0117,-0.0067,-0.0059,-0.0156,-0.0156,-0.0156,0,-0.0523,-0.0529,-0.0501,-0.0507,-0.0498,-0.0455,-0.0462,-0.0436,-0.0393,-0.0372,-0.0361,-0.0277,-0.0238,-0.0191,-0.0194,-0.0174,-0.0135,-0.0168,-0.0126,-0.0123,-0.012,-0.0068,-0.006,-0.0158,-0.0158,-0.0158,-0.0157,0,-0.0558,-0.0561,-0.0566,-0.0558,-0.0544,-0.0543,-0.0506,-0.0487,-0.0458,-0.0423,-0.0376,-0.032,-0.0267,-0.0251,-0.0224,-0.0181,-0.016,-0.0142,-0.0118,-0.0121,-0.0067,-0.0057,-0.0162,-0.0161,-0.016,-0.016,0,0,-0.0593,-0.0592,-0.0593,-0.0597,-0.0571,-0.0563,-0.0548,-0.0513,-0.0493,-0.0449,-0.0415,-0.0358,-0.0319,-0.0288,-0.0243,-0.0196,-0.0143,-0.0165,-0.0161,-0.0119,-0.0018,0.0012,0.0026,-0.0116,-0.0115,-0.0114,0.0009,0,-0.0627,-0.0657,-0.0639,-0.0653,-0.0663,-0.0618,-0.0604,-0.0565,-0.052,-0.0476,-0.0409,-0.0364,-0.0334,-0.0308,-0.0256,-0.0166,-0.0118,-0.0178,-0.0017,-0.0012,0.0012,0.0038,0.0064,0.0178,0.0019,0.0021,0.0022,0,-0.0665,-0.0679,-0.0709,-0.07,-0.0698,-0.0696,-0.0656,-0.0636,-0.0561,-0.0522,-0.0461,-0.0404,-0.0325,-0.0306,-0.0155,-0.0194,-0.0117,-0.0051,-0.0044,0.0011,0.0037,0.0157,0.0202,0.0301,0.0039,0.0037,0.0036,0,-0.0709,-0.0722,-0.0748,-0.0748,-0.0733,-0.073,-0.0713,-0.0653,-0.0626,-0.0549,-0.0513,-0.0415,-0.0352,-0.0249,-0.0115,-0.0131,0.0054,0.0054,0.0153,0.0156,0.0224,0.023,0.0381,0.0153,0.0152,0.0152,0.0152,0,-0.0753,-0.077,-0.0774,-0.0789,-0.0807,-0.0776,-0.0769,-0.0732,-0.0669,-0.0626,-0.0542,-0.0477,-0.0334,-0.0211,-0.0108,0.0065,0.0066,0.0159,0.0195,0.0205,0.0208,0.0333,0.0361,0.0157,0.0156,0.0155,0.0154,0,-0.0798,-0.0801,-0.0831,-0.0832,-0.0833,-0.0845,-0.0819,-0.0805,-0.0736,-0.0676,-0.0653,-0.0505,-0.0337,-0.019,0.0002,0.0087,0.0306,0.029,0.0287,0.032,0.0483,0.0506,0.069,0.0757,0.0416,0.0418,0.0419,0,-0.0823,-0.0847,-0.0872,-0.0893,-0.0897,-0.0906,-0.0908,-0.0851,-0.0823,-0.0684,-0.0652,-0.048,-0.0337,-0.0045,0.0135,0.0333,0.0399,0.046,0.0428,0.0509,0.0562,0.0573,0.0616,0.0501,0.0502,0.0504,0.0505,0,-0.0867,-0.0877,-0.0903,-0.0954,-0.0972,-0.0981,-0.0971,-0.0956,-0.0866,-0.0781,-0.063,-0.0504,-0.0214,0.004,0.0289,0.0401,0.0534,0.0496,0.0596,0.0656,0.0665,0.0741,0.0393,0.0519,0.0517,0.0516,0.0516,0.0515,-0.0891,-0.0926,-0.0964,-0.1006,-0.103,-0.104,-0.1032,-0.0984,-0.0912,-0.0749,-0.0624,-0.0371,-0.0047,0.0318,0.0441,0.0698,0.0664,0.0768,0.0795,0.0803,0.0854,0.0527,0.0678,0.0678,0.0677,0.0677,0.0677,0,-0.0919,-0.096,-0.101,-0.1055,-0.1083,-0.1081,-0.1056,-0.1004,-0.0899,-0.0713,-0.0532,-0.0089,0.0229,0.0517,0.0854,0.0987,0.1011,0.1056,0.1084,0.1118,0.0857,0.0845,0.102,0.102,0.102,0.102,0.102,0.102,-0.0935,-0.0994,-0.1026,-0.1083,-0.1109,-0.1109,-0.1084,-0.0973,-0.0824,-0.0503,-0.0207,0.0026,0.0425,0.0925,0.1229,0.1257,0.1371,0.1361,0.1425,0.1239,0.1214,0.119,0.1188,0.1432,0.1432,0.1682,0.1685,0.1687]}],[{"header":{"parameterUnit":"m.s-1","parameterCategory":2,"la1":30.2991,"la2":30.254,"lo1":-89.0895,"lo2":-89.0444,"dy":0.0017,"dx":0.0017,"nx":28,"ny":28,"refTime":"2025-12-03T03:00:00:Z","depth":"2","parameterNumber":2,"parameterNumberName":"U-component_of_CURRENTS"},"data":[0,0,0,0,0,0,0,0,0,0,0,0,0,0,0,0,0,0,0,0,0,0,0,0,0,0,0,0,0,0,0,0,0,0,0,0,0,0,0,0,0,0,0,0,0,0,0,0,0,0,0,0,0,0,0,0,0,0,-0.1924,-0.1924,0,-0.1941,-0.1941,-0.1941,-0.192,-0.1919,-0.1918,-0.1918,-0.1894,-0.1894,-0.1894,0,0,0,0,0,0,0,0,0,0,0,0,0,-0.1879,-0.188,-0.1924,-0.1924,-0.1925,-0.1941,-0.1941,-0.1941,-0.192,-0.1919,-0.1918,-0.1917,-0.1894,-0.1894,-0.1894,0,0,0,0,0,0,0,0,0,0,0,0,0,-0.1896,-0.188,-0.1924,-0.1917,-0.1917,-0.1941,-0.1941,-0.1941,-0.192,-0.1919,-0.1918,-0.1917,-0.1894,-0.1894,-0.1894,-0.1913,0,0,-0.1894,-0.1894,0,0,0,0,0,0,0,0,-0.1895,-0.1898,-0.1918,-0.1918,-0.1917,-0.1928,-0.1917,-0.193,-0.192,-0.1917,-0.1918,-0.1917,-0.1904,-0.1903,-0.1906,-0.1912,-0.1911,-0.1894,-0.1894,-0.1894,-0.1894,0,0,0,0,0,0,0,-0.1894,-0.1897,-0.1929,-0.1918,-0.1918,-0.1915,-0.1916,-0.1919,-0.1914,-0.1917,-0.1916,-0.1921,-0.1903,-0.1907,-0.1906,-0.191,-0.1894,-0.1894,-0.1894,-0.1894,-0.1929,-0.193,0,0,0,0,0,0,-0.1896,-0.1896,-0.1928,-0.193,-0.1906,-0.1917,-0.1918,-0.1925,-0.1914,-0.1913,-0.1922,-0.192,-0.1907,-0.1906,-0.1905,-0.1922,-0.1894,-0.1894,-0.1894,-0.1928,-0.1929,-0.193,0,0,0,0,0,0,-0.1895,-0.1899,-0.1928,-0.1914,-0.1918,-0.1919,-0.1926,-0.1925,-0.1928,-0.1918,-0.1915,-0.1924,-0.1906,-0.1905,-0.1912,-0.1921,-0.1894,-0.1894,-0.1927,-0.1928,-0.193,-0.196,0,0,0,0,0,0,-0.1894,-0.1899,-0.1902,-0.1914,-0.1919,-0.1944,-0.1927,-0.1927,-0.1933,-0.193,-0.192,-0.1917,-0.1905,-0.1912,-0.1912,-0.1921,-0.1894,-0.1926,-0.1927,-0.1929,-0.1958,-0.1962,-0.1966,0,0,0,0,0,-0.1892,-0.1903,-0.1902,-0.1906,-0.1924,-0.1945,-0.1947,-0.1943,-0.1934,-0.194,-0.1935,-0.1917,-0.1923,-0.1913,-0.1913,-0.1921,-0.1925,-0.1927,-0.1929,-0.1956,-0.1962,-0.1966,0,0,0,0,0,0,-0.1885,-0.1902,-0.1901,-0.1916,-0.193,-0.1942,-0.1947,-0.1948,-0.195,-0.1945,-0.1931,-0.1929,-0.1938,-0.1931,-0.192,-0.1938,-0.1921,-0.1923,-0.1941,-0.1947,-0.1951,-0.195,-0.1894,0,0,0,0,0,-0.1887,-0.1895,-0.1914,-0.1924,-0.1933,-0.1941,-0.1948,-0.195,-0.1955,-0.1955,-0.195,-0.1946,-0.1949,-0.1947,-0.1949,-0.196,-0.1939,-0.1966,-0.197,-0.1974,-0.1974,-0.1956,-0.1958,-0.1937,-0.1937,-0.1937,0,0,-0.1886,-0.1896,-0.19,-0.1923,-0.1931,-0.1951,-0.1942,-0.1958,-0.1971,-0.1953,-0.1965,-0.1961,-0.1957,-0.1968,-0.1972,-0.1961,-0.1968,-0.1977,-0.1979,-0.1977,-0.1958,-0.196,-0.1962,-0.1939,-0.1938,-0.1938,0,0,-0.1891,-0.19,-0.191,-0.1927,-0.1947,-0.1957,-0.1964,-0.1981,-0.1984,-0.2002,-0.1991,-0.1994,-0.2,-0.1997,-0.1996,-0.2027,-0.1993,-0.2028,-0.2045,-0.2028,-0.2029,-0.203,-0.2,-0.1998,-0.2028,-0.2028,-0.2028,0,-0.1889,-0.1905,-0.1917,-0.1936,-0.1949,-0.1962,-0.198,-0.1994,-0.201,-0.2014,-0.2008,-0.2016,-0.2013,-0.2022,-0.2035,-0.2035,-0.2014,-0.2024,-0.2032,-0.2032,-0.2032,-0.2001,-0.1998,-0.203,-0.2029,-0.2029,-0.2029,0,-0.1904,-0.192,-0.193,-0.1956,-0.1974,-0.1993,-0.2017,-0.2032,-0.2037,-0.2045,-0.2056,-0.2054,-0.2055,-0.2059,-0.2058,-0.2063,-0.2044,-0.2039,-0.2015,-0.2036,-0.2002,-0.1999,-0.2032,-0.2031,-0.2031,-0.2031,0,0,-0.1886,-0.1931,-0.1933,-0.1946,-0.1985,-0.2,-0.2031,-0.2055,-0.2065,-0.2079,-0.2085,-0.2099,-0.2092,-0.2092,-0.2087,-0.2079,-0.2066,-0.2063,-0.2062,-0.2027,-0.2016,-0.1925,-0.1912,-0.2059,-0.2059,-0.2059,-0.1989,0,-0.189,-0.1923,-0.1948,-0.1978,-0.1995,-0.2023,-0.2049,-0.2074,-0.2087,-0.2099,-0.2101,-0.2106,-0.2107,-0.2104,-0.2099,-0.2076,-0.2059,-0.2084,-0.2007,-0.2004,-0.1915,-0.1906,-0.1784,-0.1705,-0.1985,-0.1985,-0.1984,0,-0.1889,-0.1913,-0.1941,-0.1982,-0.1993,-0.2015,-0.2046,-0.2073,-0.21,-0.2109,-0.2117,-0.2118,-0.2118,-0.2111,-0.2074,-0.2089,-0.2057,-0.2034,-0.2031,-0.1932,-0.1907,-0.1732,-0.1688,-0.1978,-0.1978,-0.1979,-0.1979,0,-0.1852,-0.1902,-0.192,-0.1936,-0.199,-0.2005,-0.2032,-0.2067,-0.2083,-0.211,-0.2114,-0.2119,-0.2107,-0.2083,-0.2042,-0.2058,-0.1985,-0.1997,-0.1881,-0.1874,-0.1748,-0.1729,-0.1961,-0.1961,-0.1962,-0.1962,-0.1962,0,-0.1837,-0.1849,-0.1904,-0.1913,-0.1931,-0.1981,-0.1999,-0.2029,-0.2066,-0.2071,-0.2109,-0.2099,-0.2098,-0.2061,-0.2033,-0.1931,-0.1971,-0.1873,-0.1847,-0.1754,-0.1738,-0.1961,-0.1962,-0.1959,-0.196,-0.196,-0.1961,0,-0.1782,-0.1823,-0.1842,-0.1897,-0.1911,-0.192,-0.1972,-0.1983,-0.2032,-0.2038,-0.2045,-0.2071,-0.2017,-0.1993,-0.1938,-0.1894,-0.1826,-0.1779,-0.1663,-0.1624,-0.1733,-0.1737,-0.1648,-0.1644,-0.1641,-0.1638,-0.1636,0,-0.1753,-0.1757,-0.1807,-0.1813,-0.1834,-0.1862,-0.1877,-0.1946,-0.1959,-0.2005,-0.1994,-0.197,-0.1909,-0.1797,-0.1722,-0.1628,-0.1712,-0.1471,-0.1481,-0.1715,-0.1699,-0.1708,-0.1716,-0.1327,-0.1323,-0.1319,-0.1316,0,-0.1685,-0.1703,-0.1717,-0.1732,-0.1748,-0.1767,-0.1797,-0.1804,-0.1874,-0.1877,-0.1854,-0.1811,-0.1715,-0.1553,-0.1446,-0.1389,-0.1481,-0.1389,-0.1649,-0.1426,-0.1407,-0.1394,-0.1413,-0.1282,-0.1285,-0.1288,-0.129,-0.1291,-0.1618,-0.1609,-0.1626,-0.1627,-0.1649,-0.1646,-0.1617,-0.1655,-0.1647,-0.1618,-0.1663,-0.1546,-0.1512,-0.1263,-0.1176,-0.1117,-0.1226,-0.1186,-0.12,-0.1218,-0.1194,-0.117,-0.0996,-0.0997,-0.0999,-0.1,-0.1001,0,-0.1518,-0.1517,-0.1518,-0.1512,-0.1485,-0.1536,-0.1536,-0.1479,-0.1419,-0.1417,-0.1362,-0.1174,-0.1047,-0.1019,-0.0866,-0.0827,-0.085,-0.08,-0.0843,-0.0876,-0.0905,-0.0869,-0.0582,-0.0581,-0.058,-0.0578,0,0,-0.1466,-0.1425,-0.1424,-0.134,-0.1335,-0.1251,-0.1221,-0.116,-0.1126,-0.1023,-0.0959,-0.0996,-0.0988,-0.0791,-0.074,-0.0636,-0.0755,-0.0601,-0.0938,-0.1021,-0.1049,-0.1123,-0.1102,0,0,0,0,0]},{"header":{"parameterUnit":"m.s-1","parameterCategory":2,"la1":30.2991,"la2":30.254,"lo1":-89.0895,"lo2":-89.0444,"dy":0.0017,"dx":0.0017,"nx":28,"ny":28,"refTime":"2025-12-03T03:00:00:Z","depth":"2","parameterNumber":3,"parameterNumberName":"V-component_of_CURRENTS"},"data":[0,0,0,0,0,0,0,0,0,0,0,0,0,0,0,0,0,0,0,0,0,0,0,0,0,0,0,0,0,0,0,0,0,0,0,0,0,0,0,0,0,0,0,0,0,0,0,0,0,0,0,0,0,0,0,0,0,0,-0.0328,-0.0328,0,-0.0267,-0.0266,-0.0265,-0.022,-0.022,-0.0219,-0.0219,-0.0128,-0.0126,-0.0123,0,0,0,0,0,0,0,0,0,0,0,0,0,-0.0369,-0.0368,-0.0329,-0.0328,-0.0327,-0.0267,-0.0266,-0.0265,-0.022,-0.022,-0.0219,-0.0219,-0.0128,-0.0126,-0.0123,0,0,0,0,0,0,0,0,0,0,0,0,0,-0.0333,-0.0368,-0.0329,-0.0298,-0.0295,-0.0267,-0.0266,-0.0265,-0.022,-0.022,-0.0219,-0.0219,-0.0129,-0.0126,-0.0123,-0.0111,0,0,-0.0113,-0.0111,0,0,0,0,0,0,0,0,-0.0335,-0.0331,-0.0303,-0.03,-0.0297,-0.0252,-0.0247,-0.0212,-0.022,-0.0247,-0.0219,-0.0219,-0.0168,-0.0161,-0.0149,-0.0106,-0.0103,-0.0112,-0.0111,-0.0109,-0.0108,0,0,0,0,0,0,0,-0.0337,-0.0333,-0.0303,-0.0303,-0.0299,-0.0275,-0.027,-0.024,-0.0209,-0.0245,-0.0242,-0.0237,-0.0165,-0.0152,-0.0146,-0.0101,-0.0113,-0.011,-0.0108,-0.0106,-0.0032,-0.0032,0,0,0,0,0,0,-0.035,-0.0336,-0.0305,-0.0301,-0.0317,-0.0275,-0.0269,-0.0266,-0.021,-0.0201,-0.0238,-0.0235,-0.0158,-0.015,-0.0143,-0.0122,-0.0109,-0.0106,-0.0104,-0.0032,-0.0032,-0.0032,0,0,0,0,0,0,-0.0351,-0.0348,-0.0307,-0.0318,-0.0311,-0.0275,-0.0272,-0.0265,-0.0252,-0.0205,-0.0195,-0.0233,-0.0157,-0.0148,-0.0117,-0.0118,-0.0105,-0.0102,-0.0032,-0.0032,-0.0032,-0.0081,0,0,0,0,0,0,-0.0353,-0.0349,-0.0352,-0.0319,-0.0311,-0.0296,-0.0272,-0.0264,-0.0251,-0.0247,-0.0198,-0.0188,-0.0156,-0.0123,-0.0114,-0.0113,-0.0099,-0.0032,-0.0032,-0.0032,-0.008,-0.0083,-0.0086,0,0,0,0,0,-0.0354,-0.0363,-0.0353,-0.0349,-0.0317,-0.0297,-0.0291,-0.0262,-0.0251,-0.0249,-0.0214,-0.019,-0.0116,-0.012,-0.011,-0.0108,-0.0032,-0.0032,-0.0032,-0.0079,-0.0083,-0.0086,0,0,0,0,0,0,-0.0381,-0.0358,-0.0346,-0.0347,-0.0326,-0.029,-0.0287,-0.0268,-0.0239,-0.0235,-0.019,-0.0178,-0.0152,-0.0124,-0.0129,-0.0086,-0.007,-0.0068,-0.0109,-0.0112,-0.0115,-0.0125,-0.0096,0,0,0,0,0,-0.039,-0.039,-0.0362,-0.0363,-0.0355,-0.0323,-0.0312,-0.0293,-0.0264,-0.025,-0.0215,-0.0178,-0.0145,-0.0125,-0.0093,-0.007,-0.0036,-0.0062,-0.0065,-0.0068,-0.0068,-0.0018,-0.0017,-0.0032,-0.0032,-0.0032,0,0,-0.04,-0.0388,-0.0387,-0.0369,-0.035,-0.0345,-0.0315,-0.0304,-0.0295,-0.0245,-0.0224,-0.0189,-0.0142,-0.0115,-0.0101,-0.0091,-0.0046,-0.0068,-0.0071,-0.0069,-0.0018,-0.0016,-0.0015,-0.0032,-0.0032,-0.0032,0,0,-0.0425,-0.0411,-0.0421,-0.0407,-0.0388,-0.0366,-0.0366,-0.0333,-0.0315,-0.0292,-0.0253,-0.0218,-0.0172,-0.0133,-0.0109,-0.011,-0.0067,-0.0102,-0.012,-0.0072,-0.007,-0.0068,-0.0029,-0.0023,-0.01,-0.01,-0.01,0,-0.0439,-0.0446,-0.042,-0.0425,-0.0418,-0.0379,-0.0386,-0.0361,-0.0322,-0.0305,-0.0294,-0.0216,-0.0179,-0.0135,-0.0135,-0.0116,-0.0085,-0.0112,-0.0076,-0.0073,-0.007,-0.003,-0.0023,-0.0102,-0.0102,-0.0102,-0.0102,0,-0.0469,-0.0473,-0.0478,-0.0471,-0.0459,-0.0459,-0.0424,-0.0408,-0.0382,-0.0351,-0.0308,-0.0254,-0.0205,-0.0189,-0.0161,-0.0123,-0.0106,-0.0089,-0.0069,-0.0072,-0.0029,-0.0021,-0.0106,-0.0105,-0.0104,-0.0104,0,0,-0.0501,-0.0501,-0.0502,-0.0509,-0.0484,-0.0478,-0.0464,-0.0435,-0.042,-0.0376,-0.0349,-0.0289,-0.0254,-0.0224,-0.0181,-0.0138,-0.0094,-0.011,-0.0106,-0.0076,0.0009,0.0027,0.0038,-0.0071,-0.0069,-0.0068,0.0028,0,-0.0532,-0.0561,-0.0544,-0.056,-0.0571,-0.0531,-0.052,-0.0486,-0.0445,-0.0408,-0.0343,-0.0303,-0.0269,-0.0245,-0.0196,-0.0116,-0.0074,-0.0122,0.0011,0.0015,0.0028,0.0048,0.0032,0.0118,0.0037,0.0038,0.0039,0,-0.0567,-0.0582,-0.0611,-0.0609,-0.0608,-0.0607,-0.0576,-0.0559,-0.0494,-0.046,-0.0403,-0.0349,-0.0275,-0.0251,-0.0116,-0.0149,-0.0078,-0.0018,-0.0013,0.0028,0.005,0.011,0.0136,0.0053,0.0052,0.0051,0.005,0,-0.0609,-0.0624,-0.0651,-0.0652,-0.0643,-0.0643,-0.063,-0.0578,-0.0558,-0.0491,-0.0464,-0.037,-0.0316,-0.0218,-0.0093,-0.0103,0.0055,0.006,0.0143,0.0145,0.017,0.0172,0.0149,0.0149,0.0149,0.0148,0.0148,0,-0.0651,-0.067,-0.0677,-0.0693,-0.0716,-0.0688,-0.069,-0.0659,-0.0607,-0.0577,-0.0496,-0.0443,-0.0304,-0.0196,-0.0095,0.0056,0.0058,0.0146,0.0176,0.0152,0.0151,0.0125,0.0121,0.0152,0.0151,0.0151,0.015,0,-0.0693,-0.0698,-0.0731,-0.0738,-0.0741,-0.0757,-0.0741,-0.0734,-0.0679,-0.0636,-0.0617,-0.0486,-0.0339,-0.0199,-0.0023,0.0059,0.0193,0.0241,0.02,0.0222,0.0248,0.024,0.0343,0.0344,0.0345,0.0347,0.0347,0,-0.0717,-0.0741,-0.0772,-0.0795,-0.0802,-0.0818,-0.0825,-0.078,-0.0761,-0.0654,-0.0631,-0.0484,-0.0361,-0.0099,0.0069,0.0252,0.0246,0.0331,0.0311,0.0252,0.027,0.026,0.0251,0.0325,0.0326,0.0327,0.0327,0,-0.076,-0.0772,-0.08,-0.0853,-0.0877,-0.0894,-0.0893,-0.0887,-0.0817,-0.0752,-0.063,-0.0522,-0.0272,-0.0056,0.0168,0.0269,0.0299,0.0348,0.032,0.0271,0.0242,0.0257,0.0248,0.0332,0.0331,0.0331,0.0331,0.0331,-0.0784,-0.0819,-0.0859,-0.0904,-0.0935,-0.0954,-0.0952,-0.0919,-0.0865,-0.0734,-0.0632,-0.042,-0.0251,0.0103,0.0239,0.0371,0.0367,0.04,0.0396,0.0392,0.0365,0.0339,0.0442,0.0442,0.0442,0.0442,0.0442,0,-0.0812,-0.0852,-0.0904,-0.0954,-0.0987,-0.0991,-0.098,-0.0936,-0.0853,-0.0703,-0.0551,-0.0301,-0.007,0.0116,0.0329,0.0434,0.0415,0.0449,0.04,0.0395,0.0391,0.0361,0.0439,0.044,0.044,0.044,0,0,-0.0828,-0.0886,-0.0916,-0.0979,-0.101,-0.1019,-0.1003,-0.0907,-0.0781,-0.0603,-0.0424,-0.0234,-0.0019,0.0126,0.0248,0.0357,0.0346,0.0365,0.0357,0.028,0.0274,0.0355,0.0304,0,0,0,0,0]}],[{"header":{"parameterUnit":"m.s-1","parameterCategory":2,"la1":30.2991,"la2":30.254,"lo1":-89.0895,"lo2":-89.0444,"dy":0.0017,"dx":0.0017,"nx":28,"ny":28,"refTime":"2025-12-03T03:00:00:Z","depth":"4","parameterNumber":2,"parameterNumberName":"U-component_of_CURRENTS"},"data":[0,0,0,0,0,0,0,0,0,0,0,0,0,0,0,0,0,0,0,0,0,0,0,0,0,0,0,0,0,0,0,0,0,0,0,0,0,0,0,0,0,0,0,0,0,0,0,0,0,0,0,0,0,0,0,0,0,0,-0.1355,-0.1355,0,-0.1404,-0.1404,-0.1405,-0.1431,-0.1431,-0.1432,-0.1432,-0.1471,-0.1472,-0.1473,0,0,0,0,0,0,0,0,0,0,0,0,0,-0.1287,-0.1288,-0.1355,-0.1355,-0.1356,-0.1404,-0.1404,-0.1405,-0.1431,-0.1431,-0.1432,-0.1432,-0.1471,-0.1472,-0.1473,0,0,0,0,0,0,0,0,0,0,0,0,0,-0.1323,-0.1288,-0.1355,-0.1376,-0.1379,-0.1403,-0.1404,-0.1405,-0.1431,-0.1431,-0.1432,-0.1432,-0.1471,-0.1472,-0.1473,-0.1476,0,0,-0.1477,-0.1478,0,0,0,0,0,0,0,0,-0.1321,-0.1325,-0.1372,-0.1375,-0.1378,-0.1413,-0.1395,-0.1428,-0.1431,-0.141,-0.1432,-0.1432,-0.1451,-0.1454,-0.1461,-0.1478,-0.1479,-0.1477,-0.1478,-0.1479,-0.1479,0,0,0,0,0,0,0,-0.1318,-0.1323,-0.1373,-0.1373,-0.1376,-0.1384,-0.139,-0.1401,-0.1427,-0.1412,-0.1414,-0.1421,-0.1453,-0.146,-0.1462,-0.148,-0.1477,-0.1478,-0.1479,-0.148,-0.1555,-0.1556,0,0,0,0,0,0,-0.1315,-0.1321,-0.1371,-0.1374,-0.1351,-0.1385,-0.1391,-0.14,-0.1428,-0.1432,-0.1421,-0.1423,-0.1457,-0.1461,-0.1464,-0.1519,-0.1479,-0.148,-0.1481,-0.1554,-0.1555,-0.1557,0,0,0,0,0,0,-0.1313,-0.1319,-0.1369,-0.135,-0.1357,-0.1386,-0.1396,-0.1401,-0.143,-0.1435,-0.1439,-0.1448,-0.1458,-0.1462,-0.1497,-0.1519,-0.148,-0.1482,-0.1553,-0.1554,-0.1556,-0.1598,0,0,0,0,0,0,-0.1311,-0.1318,-0.1334,-0.135,-0.1358,-0.1399,-0.1396,-0.1402,-0.1433,-0.1436,-0.1459,-0.1462,-0.1458,-0.1495,-0.1498,-0.152,-0.1483,-0.1551,-0.1553,-0.1556,-0.1595,-0.1601,-0.1606,0,0,0,0,0,-0.1308,-0.1326,-0.1334,-0.1341,-0.1375,-0.14,-0.1405,-0.1425,-0.1435,-0.1452,-0.1471,-0.1462,-0.1512,-0.1498,-0.1501,-0.1524,-0.155,-0.1553,-0.1555,-0.1593,-0.16,-0.1606,0,0,0,0,0,0,-0.1307,-0.133,-0.134,-0.1365,-0.1388,-0.1405,-0.1426,-0.1439,-0.1468,-0.1477,-0.148,-0.1484,-0.1522,-0.152,-0.1504,-0.1553,-0.1529,-0.1532,-0.1556,-0.1563,-0.1568,-0.1564,-0.1484,0,0,0,0,0,-0.1313,-0.1332,-0.1355,-0.1377,-0.1391,-0.1413,-0.143,-0.1445,-0.1467,-0.1482,-0.1499,-0.1516,-0.1532,-0.1546,-0.1559,-0.1588,-0.1566,-0.1605,-0.161,-0.1615,-0.1615,-0.1604,-0.1608,-0.1566,-0.1566,-0.1566,0,0,-0.1319,-0.1335,-0.1348,-0.1379,-0.1398,-0.1424,-0.1425,-0.1458,-0.1484,-0.1481,-0.1528,-0.1539,-0.1545,-0.1577,-0.1593,-0.1581,-0.1615,-0.1618,-0.1622,-0.162,-0.1607,-0.1611,-0.1615,-0.1568,-0.1567,-0.1567,0,0,-0.1333,-0.1357,-0.1376,-0.1398,-0.1433,-0.1447,-0.1462,-0.1495,-0.1517,-0.1558,-0.1562,-0.1587,-0.1618,-0.1624,-0.1629,-0.1674,-0.1645,-0.1683,-0.1709,-0.1699,-0.1702,-0.1704,-0.1676,-0.1676,-0.1685,-0.1685,-0.1686,0,-0.1342,-0.1366,-0.1386,-0.1411,-0.1433,-0.1461,-0.1488,-0.1514,-0.1556,-0.1574,-0.1581,-0.1627,-0.1637,-0.1662,-0.1682,-0.1685,-0.1669,-0.1682,-0.1704,-0.1706,-0.1708,-0.1679,-0.1678,-0.1688,-0.1688,-0.1687,-0.1687,0,-0.1361,-0.1392,-0.1408,-0.1446,-0.1473,-0.1503,-0.1538,-0.1573,-0.1603,-0.1623,-0.1665,-0.168,-0.1702,-0.1713,-0.1715,-0.1737,-0.1718,-0.1711,-0.1683,-0.1714,-0.1682,-0.168,-0.1691,-0.169,-0.169,-0.1689,0,0,-0.1347,-0.1409,-0.1417,-0.1441,-0.1495,-0.1516,-0.1566,-0.1608,-0.1636,-0.1679,-0.1707,-0.1745,-0.1752,-0.1758,-0.1762,-0.1762,-0.1764,-0.1749,-0.1747,-0.1714,-0.1729,-0.161,-0.1596,-0.1761,-0.1761,-0.1762,-0.17,0,-0.1357,-0.1403,-0.1435,-0.1486,-0.1511,-0.1556,-0.1596,-0.1639,-0.1675,-0.1711,-0.1731,-0.1761,-0.1768,-0.1782,-0.1786,-0.1771,-0.1762,-0.178,-0.1711,-0.1708,-0.1592,-0.1591,-0.1762,-0.1698,-0.1698,-0.1697,-0.1697,0,-0.1356,-0.139,-0.1439,-0.1501,-0.1517,-0.1556,-0.1617,-0.1657,-0.171,-0.1736,-0.1768,-0.1783,-0.1803,-0.18,-0.1782,-0.1795,-0.1769,-0.175,-0.1747,-0.1618,-0.1585,-0.1663,-0.1693,-0.1693,-0.1694,-0.1694,-0.1694,0,-0.1316,-0.1388,-0.1427,-0.1451,-0.1527,-0.1562,-0.1606,-0.1665,-0.1694,-0.1751,-0.1766,-0.1795,-0.1799,-0.1788,-0.1761,-0.1775,-0.172,-0.1728,-0.1591,-0.1582,-0.1691,-0.1689,-0.1705,-0.1705,-0.1705,-0.1705,-0.1705,0,-0.1294,-0.1328,-0.1417,-0.1437,-0.1483,-0.1548,-0.1595,-0.1642,-0.1699,-0.1712,-0.1774,-0.1769,-0.1798,-0.1773,-0.1755,-0.1652,-0.171,-0.1584,-0.1555,-0.171,-0.1711,-0.1689,-0.1688,-0.1703,-0.1703,-0.1704,-0.1704,0,-0.1233,-0.1296,-0.1343,-0.1434,-0.1463,-0.1496,-0.158,-0.1601,-0.1672,-0.1688,-0.1704,-0.1744,-0.1703,-0.1703,-0.1666,-0.1613,-0.1549,-0.1499,-0.1648,-0.1631,-0.1422,-0.1425,-0.1338,-0.1333,-0.1329,-0.1326,-0.1323,0,-0.1201,-0.1221,-0.1322,-0.1347,-0.1391,-0.1453,-0.1482,-0.1572,-0.1587,-0.1646,-0.1631,-0.163,-0.1635,-0.1474,-0.1504,-0.1435,-0.1423,-0.1383,-0.1421,-0.1402,-0.1384,-0.1393,-0.14,-0.1317,-0.1316,-0.1314,-0.1313,0,-0.1131,-0.118,-0.1217,-0.1269,-0.1313,-0.1349,-0.1402,-0.14,-0.1479,-0.1559,-0.1501,-0.1469,-0.1412,-0.1378,-0.1324,-0.1288,-0.141,-0.1341,-0.135,-0.1385,-0.1375,-0.1363,-0.1375,-0.1299,-0.1301,-0.1303,-0.1303,0,-0.1075,-0.1082,-0.1136,-0.1166,-0.122,-0.1219,-0.1265,-0.1268,-0.1294,-0.1368,-0.1339,-0.1342,-0.1384,-0.1297,-0.1255,-0.12,-0.119,-0.116,-0.1179,-0.1195,-0.1178,-0.1146,-0.0961,0,0,0,0,0,-0.1007,-0.1,-0.1025,-0.105,-0.1097,-0.1122,-0.1192,-0.1239,-0.1317,-0.1232,-0.1283,-0.1226,-0.1157,-0.1169,-0.1078,-0.1194,-0.1199,-0.1086,-0.1177,-0.1221,-0.1237,-0.1231,0,0,0,0,0,0,-0.0962,-0.0981,-0.0985,-0.0941,-0.0933,-0.0965,-0.1002,-0.1059,-0.1025,-0.111,-0.1074,-0.1143,-0.1091,-0.1172,-0.1046,-0.1049,-0.1079,-0.1103,-0.11,-0.1211,-0.1226,-0.1239,-0.1239,0,0,0,0,0]},{"header":{"parameterUnit":"m.s-1","parameterCategory":2,"la1":30.2991,"la2":30.254,"lo1":-89.0895,"lo2":-89.0444,"dy":0.0017,"dx":0.0017,"nx":28,"ny":28,"refTime":"2025-12-03T03:00:00:Z","depth":"4","parameterNumber":3,"parameterNumberName":"V-component_of_CURRENTS"},"data":[0,0,0,0,0,0,0,0,0,0,0,0,0,0,0,0,0,0,0,0,0,0,0,0,0,0,0,0,0,0,0,0,0,0,0,0,0,0,0,0,0,0,0,0,0,0,0,0,0,0,0,0,0,0,0,0,0,0,-0.0225,-0.0225,0,-0.0185,-0.0185,-0.0184,-0.0156,-0.0156,-0.0156,-0.0156,-0.0087,-0.0086,-0.0084,0,0,0,0,0,0,0,0,0,0,0,0,0,-0.0245,-0.0245,-0.0225,-0.0225,-0.0224,-0.0186,-0.0185,-0.0184,-0.0156,-0.0156,-0.0156,-0.0156,-0.0088,-0.0086,-0.0084,0,0,0,0,0,0,0,0,0,0,0,0,0,-0.0223,-0.0245,-0.0225,-0.0207,-0.0205,-0.0186,-0.0185,-0.0184,-0.0157,-0.0156,-0.0156,-0.0156,-0.0089,-0.0086,-0.0084,-0.0071,0,0,-0.0076,-0.0075,0,0,0,0,0,0,0,0,-0.0224,-0.0222,-0.021,-0.0208,-0.0206,-0.0177,-0.0167,-0.0145,-0.0157,-0.0174,-0.0156,-0.0156,-0.0115,-0.0111,-0.0102,-0.0068,-0.0065,-0.0075,-0.0074,-0.0073,-0.0072,0,0,0,0,0,0,0,-0.0226,-0.0224,-0.0208,-0.0209,-0.0207,-0.019,-0.0186,-0.0163,-0.0145,-0.0172,-0.017,-0.0168,-0.0114,-0.0105,-0.01,-0.0064,-0.0075,-0.0073,-0.0072,-0.0071,-0.001,-0.001,0,0,0,0,0,0,-0.0235,-0.0225,-0.0209,-0.0207,-0.0216,-0.019,-0.0186,-0.0185,-0.0145,-0.014,-0.0168,-0.0167,-0.0109,-0.0104,-0.0098,-0.0083,-0.0073,-0.007,-0.0069,-0.001,-0.001,-0.001,0,0,0,0,0,0,-0.0236,-0.0234,-0.0211,-0.0216,-0.0212,-0.019,-0.0189,-0.0185,-0.0179,-0.0143,-0.0136,-0.0168,-0.0109,-0.0102,-0.0079,-0.008,-0.0069,-0.0067,-0.001,-0.001,-0.001,-0.005,0,0,0,0,0,0,-0.0236,-0.0235,-0.024,-0.0217,-0.0212,-0.0205,-0.0189,-0.0184,-0.0178,-0.0176,-0.014,-0.0133,-0.0108,-0.0083,-0.0076,-0.0076,-0.0065,-0.001,-0.001,-0.001,-0.0049,-0.0052,-0.0054,0,0,0,0,0,-0.0237,-0.0245,-0.024,-0.0239,-0.0219,-0.0206,-0.0202,-0.0184,-0.0179,-0.0178,-0.0153,-0.0135,-0.0078,-0.0081,-0.0073,-0.0072,-0.001,-0.001,-0.001,-0.0048,-0.0051,-0.0054,0,0,0,0,0,0,-0.0256,-0.0242,-0.0237,-0.024,-0.0227,-0.0202,-0.0202,-0.019,-0.017,-0.0169,-0.0134,-0.0125,-0.0106,-0.0083,-0.0088,-0.0054,-0.0041,-0.0039,-0.0072,-0.0075,-0.0077,-0.0086,-0.0063,0,0,0,0,0,-0.0263,-0.0267,-0.0248,-0.0252,-0.0248,-0.0227,-0.022,-0.0209,-0.0188,-0.018,-0.0154,-0.0125,-0.0099,-0.0084,-0.0059,-0.004,-0.0015,-0.0034,-0.0036,-0.0038,-0.004,-0.0,0.0001,-0.001,-0.001,-0.001,0,0,-0.0272,-0.0265,-0.0267,-0.0257,-0.0246,-0.0244,-0.0222,-0.0217,-0.0213,-0.0175,-0.0162,-0.0135,-0.0097,-0.0076,-0.0065,-0.0057,-0.0023,-0.0038,-0.004,-0.004,0.0,0.0001,0.0002,-0.0009,-0.0009,-0.001,0,0,-0.029,-0.0285,-0.0294,-0.0287,-0.0276,-0.0261,-0.0263,-0.0241,-0.023,-0.0215,-0.0185,-0.0157,-0.0122,-0.0091,-0.0071,-0.0071,-0.004,-0.0064,-0.008,-0.0042,-0.0041,-0.0039,-0.0014,-0.001,-0.0063,-0.0063,-0.0063,0,-0.0302,-0.0311,-0.0295,-0.0301,-0.0299,-0.0273,-0.0281,-0.0263,-0.0237,-0.0226,-0.0217,-0.0158,-0.0127,-0.0093,-0.0092,-0.0076,-0.0054,-0.0074,-0.0045,-0.0043,-0.0041,-0.0015,-0.001,-0.0065,-0.0065,-0.0064,-0.0064,0,-0.0325,-0.0334,-0.0339,-0.0338,-0.0332,-0.0336,-0.0312,-0.0303,-0.0287,-0.0265,-0.0234,-0.0189,-0.0152,-0.0137,-0.0114,-0.0083,-0.0073,-0.0056,-0.0041,-0.0043,-0.0015,-0.001,-0.0067,-0.0067,-0.0066,-0.0066,0,0,-0.0347,-0.0355,-0.0358,-0.0369,-0.0355,-0.0354,-0.0346,-0.0329,-0.0324,-0.0289,-0.0274,-0.0222,-0.0195,-0.017,-0.0133,-0.0097,-0.0065,-0.0074,-0.0072,-0.0054,0.0011,0.0003,0.0009,-0.0044,-0.0043,-0.0042,0.0021,0,-0.0371,-0.04,-0.0391,-0.0412,-0.0424,-0.04,-0.0395,-0.0374,-0.0348,-0.0325,-0.027,-0.0242,-0.0207,-0.0191,-0.0148,-0.0084,-0.005,-0.0084,0.0015,0.0017,0.0007,0.0015,-0.0039,0.0025,0.0027,0.0028,0.0028,0,-0.0396,-0.0414,-0.0445,-0.0457,-0.0459,-0.0465,-0.0455,-0.0446,-0.0401,-0.0378,-0.0334,-0.029,-0.0229,-0.0203,-0.0094,-0.0118,-0.0061,-0.0011,-0.0007,0.0004,0.0021,0.0032,0.0039,0.0039,0.0038,0.0037,0.0036,0,-0.0425,-0.0449,-0.048,-0.0484,-0.049,-0.0499,-0.0498,-0.0466,-0.0458,-0.0412,-0.0396,-0.0318,-0.0278,-0.0192,-0.0089,-0.0091,0.0028,0.0041,0.0087,0.0087,0.0092,0.009,0.0111,0.0111,0.0111,0.0111,0.0111,0,-0.0452,-0.0477,-0.0502,-0.0519,-0.0553,-0.054,-0.0558,-0.054,-0.051,-0.0496,-0.0429,-0.0393,-0.0273,-0.0188,-0.0098,0.0013,0.0024,0.0085,0.0105,0.0072,0.0068,0.0096,0.0093,0.0113,0.0113,0.0112,0.0112,0,-0.0476,-0.0493,-0.0533,-0.0559,-0.0571,-0.0595,-0.0607,-0.0611,-0.0578,-0.0556,-0.0543,-0.0443,-0.0329,-0.0212,-0.0066,-0.0003,0.0104,0.0138,0.0086,0.0102,0.0137,0.0131,0.0193,0.0194,0.0194,0.0194,0.0194,0,-0.0488,-0.0514,-0.0569,-0.06,-0.0617,-0.065,-0.0668,-0.0649,-0.0641,-0.058,-0.0563,-0.0459,-0.0382,-0.0177,-0.0061,0.0102,0.0124,0.0166,0.0158,0.0133,0.0147,0.0141,0.0135,0.0195,0.0195,0.0195,0.0195,0,-0.0511,-0.0537,-0.0571,-0.0637,-0.0675,-0.0709,-0.0726,-0.0723,-0.0686,-0.0664,-0.0559,-0.0451,-0.0324,-0.0168,-0.0046,0.0071,0.0133,0.017,0.017,0.0163,0.0136,0.0148,0.0142,0.0196,0.0196,0.0196,0.0196,0,-0.0525,-0.0559,-0.061,-0.0662,-0.0716,-0.0743,-0.0752,-0.0723,-0.0705,-0.0623,-0.0589,-0.0444,-0.0357,-0.0184,-0.0068,0.0042,0.0068,0.0094,0.0099,0.0099,0.0051,0.0001,0.0039,0,0,0,0,0,-0.0531,-0.0571,-0.0627,-0.0683,-0.0736,-0.0759,-0.0776,-0.077,-0.0736,-0.0662,-0.0618,-0.0491,-0.0301,-0.0213,-0.0102,-0.0082,0.0067,0.0048,0.0094,0.0201,0.02,0.0159,0,0,0,0,0,0,-0.0538,-0.0594,-0.0625,-0.0685,-0.0721,-0.0767,-0.0776,-0.0756,-0.0699,-0.065,-0.0538,-0.0476,-0.0285,-0.0357,-0.01,-0.0068,-0.0028,0.0141,0.0143,0.0202,0.0201,0.02,0.0157,0,0,0,0,0]}]]